Location: Dodge City Community College Clyde Tombaugh Astronomy Center
(37.7756°N, 100.0412°W)
Time: 00:27:30
(UTC+00:00)

Cosmos 2228 Rocket - Pass Details

Date: 02 July 2022
Orbit: 618 x 651 km, 82.5° (Epoch: 16 August)

Event Time Altitude Azimuth Distance (km) Brightness Sun altitude
Rises 10:05:40 0° 358° (N) 2,914 7.2 -13.0°
Reaches altitude 10° 10:07:58 10° 4° (N) 2,008 6.4 -12.6°
Maximum altitude 10:12:17 50° 80° (E) 808 4.0 -12.0°
Drops below altitude 10° 10:16:37 10° 156° (SSE) 2,013 5.5 -11.4°
Sets 10:18:55 0° 162° (SSE) 2,922 6.3 -11.0°
